AAL1173 KDCA-KBTV

Flight info

Callsign AAL1173
Flight time 1h 6m
Altitude 33000
Route SOOKI6 SWANN BROSS Q419 RBV Q22 LLUND BIZEX CAM GRNMT BTV
Aircraft A319/M-VGDW/C

Departure

Time 2026-05-03 23:53
Airport Ronald Reagan Washington National Airport (KDCA)

Arrival

Time 2026-05-04 00:59
Airport Patrick Leahy Burlington International Airport (KBTV)
Time Latitude Longitude Altitude Speed Heading
2026-05-03 23:32 38.85562 -77.04220 26 ft 0 kts 326°
2026-05-03 23:43 38.85554 -77.04213 26 ft 2 kts 326°
2026-05-03 23:43 38.85541 -77.04202 26 ft 2 kts 326°
2026-05-03 23:44 38.85529 -77.04191 26 ft 1 kts 330°
2026-05-03 23:44 38.85516 -77.04190 26 ft 2 kts 29°
2026-05-03 23:44 38.85508 -77.04200 27 ft 0 kts 67°
2026-05-03 23:44 38.85506 -77.04209 27 ft 1 kts 73°
2026-05-03 23:45 38.85505 -77.04210 27 ft 0 kts 72°
2026-05-03 23:45 38.85505 -77.04211 27 ft 0 kts 72°
2026-05-03 23:45 38.85505 -77.04210 27 ft 0 kts 72°
2026-05-03 23:47 38.85505 -77.04211 27 ft 0 kts 72°
2026-05-03 23:47 38.85505 -77.04210 27 ft 0 kts 72°
2026-05-03 23:47 38.85505 -77.04211 27 ft 0 kts 72°
2026-05-03 23:47 38.85505 -77.04210 27 ft 0 kts 72°
2026-05-03 23:48 38.85507 -77.04202 27 ft 0 kts 72°
2026-05-03 23:48 38.85509 -77.04194 26 ft 3 kts 73°
2026-05-03 23:48 38.85525 -77.04131 25 ft 9 kts 72°
2026-05-03 23:48 38.85533 -77.04034 23 ft 12 kts 124°
2026-05-03 23:49 38.85448 -77.04007 23 ft 13 kts 176°
2026-05-03 23:49 38.85356 -77.03993 23 ft 11 kts 160°
2026-05-03 23:49 38.85309 -77.03934 22 ft 10 kts 160°
2026-05-03 23:49 38.85231 -77.03924 23 ft 12 kts 176°
2026-05-03 23:50 38.85140 -77.03915 22 ft 14 kts 176°
2026-05-03 23:50 38.85022 -77.03903 21 ft 18 kts 175°
2026-05-03 23:50 38.84892 -77.03890 21 ft 19 kts 175°
2026-05-03 23:50 38.84758 -77.03877 20 ft 19 kts 176°
2026-05-03 23:51 38.84620 -77.03863 19 ft 20 kts 176°
2026-05-03 23:51 38.84477 -77.03849 16 ft 15 kts 174°
2026-05-03 23:51 38.84375 -77.03839 16 ft 14 kts 175°
2026-05-03 23:51 38.84271 -77.03828 15 ft 14 kts 173°
2026-05-03 23:52 38.84201 -77.03784 14 ft 11 kts 129°
2026-05-03 23:52 38.84202 -77.03687 14 ft 11 kts 31°
2026-05-03 23:52 38.84257 -77.03685 15 ft 8 kts 355°
2026-05-03 23:52 38.84560 -77.03718 18 ft 82 kts 354°
2026-05-03 23:53 38.85362 -77.03799 20 ft 147 kts 355°
2026-05-03 23:53 38.86504 -77.03905 338 ft 173 kts 355°
2026-05-03 23:53 38.87701 -77.04258 902 ft 186 kts 328°
2026-05-03 23:53 38.88725 -77.05300 1562 ft 196 kts 316°
2026-05-03 23:54 38.89735 -77.06578 2132 ft 214 kts 310°
2026-05-03 23:54 38.90612 -77.08212 2692 ft 232 kts 298°
2026-05-03 23:54 38.91430 -77.10046 3309 ft 249 kts 306°
2026-05-03 23:54 38.92670 -77.11623 4189 ft 256 kts 322°
2026-05-03 23:55 38.94133 -77.12908 5177 ft 257 kts 325°
2026-05-03 23:55 38.95669 -77.14037 6108 ft 260 kts 329°
2026-05-03 23:55 38.97330 -77.14915 6979 ft 267 kts 347°
2026-05-03 23:55 38.99193 -77.14726 7888 ft 277 kts 15°
2026-05-03 23:56 39.00845 -77.13448 8808 ft 284 kts 35°
2026-05-03 23:56 39.02375 -77.11839 9674 ft 287 kts 35°
2026-05-03 23:56 39.03781 -77.10035 10490 ft 296 kts 52°
2026-05-03 23:56 39.04596 -77.07574 11208 ft 311 kts 74°
2026-05-03 23:57 39.04975 -77.04743 11775 ft 330 kts 78°
2026-05-03 23:57 39.05322 -77.01758 12283 ft 349 kts 78°
2026-05-03 23:57 39.05693 -76.98592 12755 ft 368 kts 78°
2026-05-03 23:57 39.06098 -76.95273 13182 ft 387 kts 78°
2026-05-03 23:58 39.06535 -76.91768 13574 ft 405 kts 78°
2026-05-03 23:58 39.06997 -76.88099 13965 ft 422 kts 78°
2026-05-03 23:58 39.07466 -76.84367 14617 ft 431 kts 78°
2026-05-03 23:58 39.07948 -76.80531 15359 ft 436 kts 78°
2026-05-03 23:59 39.08431 -76.76678 16049 ft 442 kts 77°
2026-05-03 23:59 39.08929 -76.72789 16664 ft 448 kts 77°
2026-05-03 23:59 39.09487 -76.68809 17270 ft 453 kts 76°
2026-05-03 23:59 39.10065 -76.64794 17839 ft 457 kts 76°
2026-05-04 00:00 39.10635 -76.60801 18386 ft 461 kts 76°
2026-05-04 00:00 39.11212 -76.56721 18883 ft 466 kts 76°
2026-05-04 00:00 39.11791 -76.52593 19356 ft 470 kts 76°
2026-05-04 00:00 39.12317 -76.48453 19827 ft 474 kts 78°
2026-05-04 00:01 39.12791 -76.44228 20262 ft 479 kts 78°
2026-05-04 00:01 39.13254 -76.39983 20699 ft 483 kts 78°
2026-05-04 00:01 39.13720 -76.35705 21120 ft 487 kts 78°
2026-05-04 00:01 39.14198 -76.31386 21528 ft 490 kts 78°
2026-05-04 00:02 39.14681 -76.27042 21945 ft 494 kts 78°
2026-05-04 00:02 39.15172 -76.22634 22327 ft 498 kts 78°
2026-05-04 00:02 39.15676 -76.18221 22708 ft 502 kts 78°
2026-05-04 00:02 39.16194 -76.13741 23069 ft 505 kts 78°
2026-05-04 00:03 39.16709 -76.09284 23440 ft 508 kts 78°
2026-05-04 00:03 39.17225 -76.04788 23775 ft 512 kts 78°
2026-05-04 00:03 39.17741 -76.00266 24076 ft 516 kts 78°
2026-05-04 00:03 39.18260 -75.95695 24398 ft 519 kts 78°
2026-05-04 00:04 39.18991 -75.91171 24692 ft 515 kts 67°
2026-05-04 00:04 39.20546 -75.87070 25015 ft 504 kts 50°
2026-05-04 00:04 39.22829 -75.83713 25323 ft 492 kts 34°
2026-05-04 00:04 39.25418 -75.80889 25635 ft 491 kts 32°
2026-05-04 00:05 39.28053 -75.78126 25850 ft 494 kts 32°
2026-05-04 00:05 39.30723 -75.75311 26059 ft 497 kts 32°
2026-05-04 00:05 39.33382 -75.72463 26367 ft 498 kts 32°
2026-05-04 00:05 39.36033 -75.69582 26752 ft 497 kts 33°
2026-05-04 00:06 39.38640 -75.66724 27129 ft 496 kts 33°
2026-05-04 00:06 39.41286 -75.63817 27497 ft 495 kts 33°
2026-05-04 00:06 39.43907 -75.60934 27855 ft 495 kts 33°
2026-05-04 00:06 39.46497 -75.58083 28243 ft 493 kts 33°
2026-05-04 00:07 39.49093 -75.55222 28608 ft 493 kts 33°
2026-05-04 00:07 39.51721 -75.52322 28977 ft 492 kts 32°
2026-05-04 00:07 39.54312 -75.49461 29331 ft 491 kts 33°
2026-05-04 00:07 39.56917 -75.46583 29675 ft 491 kts 32°
2026-05-04 00:08 39.59498 -75.43726 30038 ft 490 kts 33°
2026-05-04 00:08 39.62080 -75.40863 30398 ft 489 kts 32°
2026-05-04 00:08 39.64654 -75.38010 30754 ft 489 kts 32°
2026-05-04 00:08 39.67231 -75.35152 31061 ft 488 kts 32°
2026-05-04 00:09 39.69819 -75.32280 31280 ft 489 kts 33°
2026-05-04 00:09 39.72393 -75.29420 31487 ft 490 kts 33°
2026-05-04 00:09 39.75006 -75.26509 31698 ft 489 kts 33°
2026-05-04 00:09 39.77542 -75.23614 31888 ft 491 kts 35°
2026-05-04 00:10 39.80010 -75.20498 32066 ft 495 kts 39°
2026-05-04 00:10 39.82339 -75.17213 32225 ft 498 kts 41°
2026-05-04 00:10 39.84615 -75.13841 32409 ft 499 kts 42°
2026-05-04 00:10 39.86881 -75.10442 32590 ft 498 kts 43°
2026-05-04 00:11 39.89167 -75.07011 32731 ft 500 kts 42°
2026-05-04 00:11 39.91456 -75.03586 32873 ft 501 kts 42°
2026-05-04 00:11 39.96003 -74.96707 32977 ft 504 kts 45°
2026-05-04 00:12 40.00099 -74.89314 32977 ft 507 kts 50°
2026-05-04 00:12 40.03999 -74.81617 32982 ft 507 kts 51°
2026-05-04 00:13 40.07853 -74.73991 32972 ft 507 kts 51°
2026-05-04 00:13 40.11742 -74.66320 32979 ft 507 kts 51°
2026-05-04 00:14 40.15610 -74.58687 32973 ft 507 kts 50°
2026-05-04 00:14 40.19855 -74.51367 32966 ft 501 kts 43°
2026-05-04 00:15 40.24656 -74.44868 32970 ft 494 kts 36°
2026-05-04 00:15 40.29847 -74.39144 32962 ft 490 kts 32°
2026-05-04 00:16 40.35134 -74.33549 32962 ft 490 kts 33°
2026-05-04 00:16 40.40416 -74.27917 32955 ft 490 kts 33°
2026-05-04 00:17 40.45684 -74.22266 32950 ft 491 kts 33°
2026-05-04 00:17 40.50967 -74.16579 32950 ft 490 kts 33°
2026-05-04 00:18 40.56220 -74.10913 32943 ft 490 kts 33°
2026-05-04 00:18 40.61461 -74.05248 32946 ft 490 kts 33°
2026-05-04 00:19 40.66734 -73.99530 32938 ft 489 kts 33°
2026-05-04 00:19 40.71968 -73.93845 32951 ft 489 kts 34°
2026-05-04 00:20 40.77226 -73.88120 32946 ft 490 kts 33°
2026-05-04 00:20 40.82552 -73.82688 32947 ft 485 kts 28°
2026-05-04 00:21 40.88258 -73.78085 32940 ft 478 kts 21°
2026-05-04 00:21 40.94250 -73.74427 32941 ft 473 kts 15°
2026-05-04 00:22 41.00403 -73.71446 32934 ft 471 kts 13°
2026-05-04 00:22 41.06563 -73.68539 32936 ft 471 kts 13°
2026-05-04 00:23 41.12747 -73.65592 32932 ft 471 kts 13°
2026-05-04 00:23 41.18864 -73.62660 32934 ft 470 kts 13°
2026-05-04 00:24 41.25017 -73.59854 32935 ft 467 kts 10°
2026-05-04 00:24 41.31308 -73.57871 32931 ft 462 kts
2026-05-04 00:25 41.37632 -73.56773 32936 ft 458 kts 359°
2026-05-04 00:25 41.43933 -73.55934 32931 ft 457 kts 359°
2026-05-04 00:26 41.50263 -73.55091 32933 ft 457 kts 360°
2026-05-04 00:26 41.56608 -73.54236 32934 ft 457 kts 359°
2026-05-04 00:27 41.62919 -73.53381 32937 ft 456 kts 360°
2026-05-04 00:27 41.69196 -73.52526 32929 ft 456 kts 360°
2026-05-04 00:28 41.75527 -73.51662 32930 ft 456 kts 360°
2026-05-04 00:28 41.81835 -73.50800 32927 ft 456 kts 360°
2026-05-04 00:29 41.88130 -73.49940 32933 ft 455 kts
2026-05-04 00:29 41.94399 -73.49076 32915 ft 455 kts
2026-05-04 00:30 42.00697 -73.48210 32916 ft 455 kts
2026-05-04 00:30 42.06991 -73.47343 32913 ft 455 kts
2026-05-04 00:31 42.13281 -73.46477 32906 ft 455 kts
2026-05-04 00:31 42.19568 -73.45605 32903 ft 455 kts
2026-05-04 00:32 42.25824 -73.44738 32901 ft 455 kts
2026-05-04 00:32 42.32126 -73.43864 32897 ft 455 kts
2026-05-04 00:33 42.41545 -73.42552 32892 ft 455 kts
2026-05-04 00:34 42.47854 -73.41670 32892 ft 454 kts
2026-05-04 00:34 42.54125 -73.40793 32889 ft 455 kts
2026-05-04 00:35 42.60412 -73.39913 32888 ft 455 kts
2026-05-04 00:35 42.66707 -73.39028 32744 ft 455 kts
2026-05-04 00:35 42.69850 -73.38587 32489 ft 455 kts
2026-05-04 00:36 42.73003 -73.38143 32114 ft 454 kts
2026-05-04 00:36 42.76119 -73.37703 31714 ft 453 kts
2026-05-04 00:36 42.79205 -73.37267 31270 ft 449 kts
2026-05-04 00:36 42.82297 -73.36831 30705 ft 446 kts
2026-05-04 00:37 42.85357 -73.36398 29993 ft 443 kts
2026-05-04 00:37 42.88423 -73.35963 29238 ft 441 kts
2026-05-04 00:37 42.91429 -73.35535 28740 ft 432 kts
2026-05-04 00:37 42.94406 -73.35111 28286 ft 423 kts
2026-05-04 00:38 42.97276 -73.34660 27869 ft 416 kts
2026-05-04 00:38 43.00103 -73.34003 27430 ft 411 kts
2026-05-04 00:38 43.02877 -73.33130 26982 ft 406 kts
2026-05-04 00:38 43.05584 -73.32156 26544 ft 399 kts 10°
2026-05-04 00:39 43.08249 -73.31175 26122 ft 393 kts 10°
2026-05-04 00:39 43.10853 -73.30212 25700 ft 387 kts 10°
2026-05-04 00:39 43.13411 -73.29267 25286 ft 381 kts 10°
2026-05-04 00:39 43.15973 -73.28320 24894 ft 375 kts 10°
2026-05-04 00:40 43.18453 -73.27405 24503 ft 370 kts
2026-05-04 00:40 43.20898 -73.26502 24107 ft 365 kts
2026-05-04 00:40 43.23333 -73.25603 23705 ft 360 kts
2026-05-04 00:40 43.25731 -73.24717 23316 ft 356 kts
2026-05-04 00:41 43.28128 -73.23831 22910 ft 352 kts
2026-05-04 00:41 43.30483 -73.22960 22509 ft 349 kts
2026-05-04 00:41 43.32798 -73.22102 22126 ft 346 kts
2026-05-04 00:41 43.35106 -73.21249 21732 ft 343 kts
2026-05-04 00:42 43.37403 -73.20396 21336 ft 341 kts
2026-05-04 00:42 43.39683 -73.19550 20948 ft 338 kts
2026-05-04 00:42 43.41946 -73.18710 20560 ft 336 kts
2026-05-04 00:42 43.44194 -73.17873 20162 ft 333 kts
2026-05-04 00:43 43.46403 -73.17052 19791 ft 331 kts
2026-05-04 00:43 43.48608 -73.16231 19425 ft 328 kts
2026-05-04 00:43 43.50813 -73.15410 19025 ft 327 kts
2026-05-04 00:43 43.53005 -73.14593 18648 ft 325 kts
2026-05-04 00:44 43.55159 -73.13791 18274 ft 324 kts
2026-05-04 00:44 43.57333 -73.12979 17888 ft 323 kts
2026-05-04 00:44 43.59498 -73.12170 17482 ft 322 kts
2026-05-04 00:44 43.61651 -73.11364 17115 ft 321 kts
2026-05-04 00:45 43.63825 -73.10552 16717 ft 323 kts
2026-05-04 00:45 43.65969 -73.09750 16317 ft 322 kts
2026-05-04 00:45 43.68120 -73.08942 15940 ft 320 kts
2026-05-04 00:45 43.70261 -73.08138 15555 ft 318 kts
2026-05-04 00:46 43.72374 -73.07346 15162 ft 317 kts
2026-05-04 00:46 43.74491 -73.06549 14765 ft 315 kts
2026-05-04 00:46 43.76596 -73.05756 14381 ft 313 kts
2026-05-04 00:46 43.78709 -73.04962 14001 ft 311 kts
2026-05-04 00:47 43.80783 -73.04182 13622 ft 310 kts
2026-05-04 00:47 43.82858 -73.03400 13238 ft 308 kts
2026-05-04 00:47 43.84923 -73.02623 12849 ft 312 kts
2026-05-04 00:47 43.87104 -73.01815 12426 ft 335 kts
2026-05-04 00:48 43.89354 -73.00967 11992 ft 337 kts 10°
2026-05-04 00:48 43.91606 -73.00111 11565 ft 336 kts 10°
2026-05-04 00:48 43.93866 -72.99249 11149 ft 333 kts 10°
2026-05-04 00:48 43.96073 -72.98409 10754 ft 330 kts
2026-05-04 00:49 43.98277 -72.97572 10387 ft 327 kts 10°
2026-05-04 00:49 44.00480 -72.96723 10260 ft 325 kts 10°
2026-05-04 00:49 44.02584 -72.95894 10114 ft 298 kts 10°
2026-05-04 00:49 44.04479 -72.95139 9993 ft 273 kts
2026-05-04 00:50 44.06299 -72.94428 9733 ft 269 kts
2026-05-04 00:50 44.08076 -72.93739 9453 ft 268 kts
2026-05-04 00:50 44.09862 -72.93049 9174 ft 267 kts
2026-05-04 00:50 44.11679 -72.92345 8920 ft 267 kts
2026-05-04 00:51 44.13455 -72.91631 8637 ft 266 kts 14°
2026-05-04 00:51 44.15140 -72.90482 8178 ft 275 kts 27°
2026-05-04 00:51 44.16631 -72.88852 7841 ft 277 kts 35°
2026-05-04 00:51 44.18078 -72.87093 7480 ft 276 kts 36°
2026-05-04 00:52 44.19506 -72.85332 7176 ft 273 kts 36°
2026-05-04 00:52 44.20945 -72.83570 7147 ft 274 kts 36°
2026-05-04 00:52 44.22374 -72.81830 7119 ft 275 kts 36°
2026-05-04 00:52 44.23893 -72.80254 7026 ft 267 kts 18°
2026-05-04 00:53 44.25665 -72.79906 6831 ft 254 kts 345°
2026-05-04 00:53 44.27153 -72.81011 6494 ft 244 kts 310°
2026-05-04 00:53 44.28031 -72.83038 6191 ft 246 kts 297°
2026-05-04 00:53 44.28889 -72.85066 5885 ft 244 kts 303°
2026-05-04 00:54 44.29861 -72.86964 5521 ft 234 kts 307°
2026-05-04 00:54 44.30833 -72.88677 5213 ft 220 kts 308°
2026-05-04 00:54 44.31797 -72.90299 4918 ft 213 kts 309°
2026-05-04 00:54 44.32744 -72.91856 4674 ft 208 kts 309°
2026-05-04 00:55 44.33671 -72.93362 4452 ft 203 kts 309°
2026-05-04 00:55 44.34592 -72.94847 4232 ft 200 kts 309°
2026-05-04 00:55 44.35503 -72.96285 3978 ft 199 kts 310°
2026-05-04 00:55 44.36431 -72.97743 3620 ft 202 kts 310°
2026-05-04 00:56 44.37350 -72.99214 3318 ft 201 kts 310°
2026-05-04 00:56 44.38270 -73.00705 3027 ft 202 kts 309°
2026-05-04 00:56 44.39165 -73.02163 2735 ft 193 kts 310°
2026-05-04 00:56 44.39995 -73.03511 2539 ft 177 kts 310°
2026-05-04 00:57 44.40767 -73.04766 2271 ft 165 kts 310°
2026-05-04 00:57 44.41499 -73.05955 2001 ft 156 kts 310°
2026-05-04 00:57 44.42193 -73.07093 1748 ft 151 kts 309°
2026-05-04 00:57 44.42867 -73.08198 1574 ft 149 kts 310°
2026-05-04 00:58 44.43541 -73.09271 1342 ft 147 kts 309°
2026-05-04 00:58 44.44179 -73.10325 1114 ft 137 kts 309°
2026-05-04 00:58 44.44809 -73.11337 928 ft 140 kts 310°
2026-05-04 00:58 44.45451 -73.12363 741 ft 139 kts 310°
2026-05-04 00:59 44.46071 -73.13364 565 ft 136 kts 310°
2026-05-04 00:59 44.46677 -73.14334 363 ft 126 kts 309°
2026-05-04 00:59 44.47189 -73.15168 333 ft 90 kts 311°
2026-05-04 00:59 44.47486 -73.15648 324 ft 37 kts 310°
2026-05-04 01:00 44.47540 -73.15794 320 ft 11 kts 233°
2026-05-04 01:00 44.47490 -73.15874 321 ft 4 kts 204°
2026-05-04 01:00 44.47449 -73.15870 322 ft 8 kts 150°
2026-05-04 01:00 44.47402 -73.15806 324 ft 10 kts 131°
2026-05-04 01:01 44.47347 -73.15717 326 ft 13 kts 131°
2026-05-04 01:01 44.47282 -73.15612 329 ft 12 kts 130°
2026-05-04 01:01 44.47219 -73.15510 332 ft 14 kts 131°
2026-05-04 01:01 44.47152 -73.15403 334 ft 11 kts 131°
2026-05-04 01:02 44.47093 -73.15367 335 ft 4 kts 174°
2026-05-04 01:02 44.47062 -73.15381 336 ft 4 kts 220°
2026-05-04 01:02 44.47042 -73.15408 336 ft 3 kts 228°
2026-05-04 01:02 44.47035 -73.15418 336 ft 0 kts 230°